Regional Weather Roundup
Issued by NWS Green Bay, WI

Home | Current Version | Previous Version | Graphics & Text | Print | Product List | Glossary Off
Versions: 1 2 3 4 5 6 7 8 9 10 11 12 13 14 15 16 17 18 19 20 21 22 23 24 25 26 27 28 29 30 31 32 33 34 35 36 37 38 39 40 41 42 43 44 45 46 47 48 49 50

000
ASUS43 KGRB 172201
RWRGRB

NORTH-CENTRAL AND NORTHEAST WISCONSIN REGIONAL WEATHER ROUNDUP
NATIONAL WEATHER SERVICE GREEN BAY WI
500 PM CDT TUE OCT 17 2017

WIZ005-009-010>012-018-019-172300-
NORTH CENTRAL WISCONSIN

CITY           SKY/WX    TMP DP  RH WIND       PRES   REMARKS
IRONWOOD       NOT AVBL
MANITOWISH WTR NOT AVBL
ARBOR VITAE    NOT AVBL
EAGLE RIVER    NOT AVBL
LAND O LAKES   NOT AVBL
RHINELANDER    SUNNY     68  41  37 SW9       29.98S
PHILLIPS       SUNNY     67  43  42 SW6       29.95F
ANTIGO         NOT AVBL
TOMAHAWK       NOT AVBL
MERRILL        SUNNY     69  46  43 SW3       29.98F
$$

WIZ013-073-172300-
NORTHEAST WISCONSIN

CITY           SKY/WX    TMP DP  RH WIND       PRES   REMARKS
IRON MOUNTAIN  CLEAR     70  33  25 CALM      29.95F
MARINETTE      CLEAR     65  49  56 S10       29.99
$$

WIZ017-030-035>037-045-172300-
CENTRAL WISCONSIN

CITY           SKY/WX    TMP DP  RH WIND       PRES   REMARKS
MEDFORD        NOT AVBL
WAUSAU         CLOUDY    66  44  45 SW7       29.97S
MOSINEE        PTSUNNY   66  48  52 S10       30.00S
MARSHFIELD     SUNNY     67  44  43 S9        29.98S
WISC RAPIDS    CLOUDY    67  48  50 S7        30.00F
STEVENS POINT  NOT AVBL
WAUPACA        NOT AVBL
SHAWANO        MOSUNNY   68  45  43 SW3       29.99S
CLINTONVILLE   NOT AVBL
WAUTOMA        SUNNY     69  46  43 S9        30.01S
$$

WIZ038-039-048-051-172300-
FOX VALLEY

CITY           SKY/WX    TMP DP  RH WIND       PRES   REMARKS
NWS GREEN BAY  CLOUDY    67  50  54 S7        30.00S
APPLETON       MOSUNNY   66  43  42 SW8       30.00S
OSHKOSH        CLOUDY    68  48  48 SW9       30.00F
FOND DU LAC    SUNNY     69  43  38 SW10G17   30.02F
$$

WIZ022-050-052-172300-
EAST CENTRAL WISCONSIN

CITY           SKY/WX    TMP DP  RH WIND       PRES   REMARKS
EPHRAIM        FAIR      61  51  70 S6        29.99S
WASHINGTON ISL NOT AVBL
STURGEON BAY   CLEAR     65  48  54 S7        30.01S
MANITOWOC      CLOUDY    66  49  54 E5        30.02S
SHEBOYGAN      SUNNY     67  47  48 SW8       30.02F
$$

LMZ563-521-522-541>543-172300-
LAKESHORE

STATION/POSITION TIME  TEMP    WIND        PRES    VSBY  WAVE
                       AIR SEA DIR/SP/G                  HT/PER
                 (UTC) (F)     (DEG/KT/KT) (MB)    (MI)  (FT/S)
SHEBOYGAN LKSHOR 2100   63     170/  8/  9 1016.4F
KEWAUNEE LKSHORE 2130   58     180/  8/ 11 1015.7R
NORTHPORT PIER   2140   62     160/  6/ 11 1015.6S
N MID LAKE BUOY  2050   59 59  200/ 16/ 17 1016.4R         4/ 6
S GREEN BAY BUOY 2100   62 58  190/ 10/ 12 1015.6
MENOMINEE LKSHOR 2130   64     190/  8/ 11 1015.1F
$$




USA.gov is the U.S. government's official web portal to all federal, state and local government web resources and services.